Lander, WY

12:54 AM MDT on October 18, 2017 (GMT -0600)
Hunt

Weather History for KLND - June, 2014

Change the Weather History Date:

Monday, June 9, 2014

  Actual Average Record
Temperature  
Mean Temperature 60 °F 61 °F  
Max Temperature 81 °F 75 °F 93 °F (1918)
Min Temperature 38 °F 47 °F 31 °F (1979)
Degree Days  
Heating Degree Days 5 6  
Month to date heating degree days 45 60  
Since 1 June heating degree days 45 60  
Since 1 July heating degree days 7629 7682  
Cooling Degree Days 0 1  
Month to date cooling degree days 3 9  
Year to date cooling degree days 21 14  
Since 1 June cooling degree days 3 9  
Growing Degree Days 10 (Base 50)    
Moisture  
Dew Point 33 °F    
Average Humidity 46    
Maximum Humidity 76    
Minimum Humidity 15    
Precipitation  
Precipitation 0.00 in 0.05 in 0.77 in (1965)
Month to date precipitation 0.10 0.53  
Year to date precipitation 4.29 6.75  
Snow  
Snow 0.00 in 0.00 in - ()
Month to date snowfall 0.0 0.1  
Since 1 June snowfall 0.0 0.1  
Since 1 July snowfall 75.7 91.4  
Snow Depth 0.00 in    
Sea Level Pressure  
Sea Level Pressure 29.95 in    
Wind  
Wind Speed 7 mph (West)    
Max Wind Speed 24 mph    
Max Gust Speed 27 mph    
Visibility 10 miles    
Events      
T = Trace of Precipitation, MM = Missing Value Source: NWS Daily Summary

Daily Weather History Graph

Daily Weather History Graph

Search for Another Location

Airport or City:

Trip Planner

Search our weather history database for the weather conditions in past years. The results will help you decide how hot, cold, wet, or windy it might be!

Date:

Astronomy

Jun. 09, 2014 Rise Set
Actual Time 5:36 AM MDT 8:52 PM MDT
Civil Twilight 5:01 AM MDT 9:27 PM MDT
Nautical Twilight 4:16 AM MDT 10:12 PM MDT
Astronomical Twilight 3:21 AM MDT 11:07 PM MDT
Moon 5:12 PM MDT (6/9) 3:10 AM MDT (6/9)
Length of Visible Light 16h 25m
Length of Day
15h 15m
Waxing Gibbous, 85% of the Moon is Illuminated
Jun 9
Waxing Gibbous
Jun 12
Full
Jun 19
Last Quarter
Jun 27
New
Jul 5
First Quarter

Hourly Weather History & Observations

Time (MDT) Temp. Windchill Dew Point Humidity Pressure Visibility Wind Dir Wind Speed Gust Speed Precip Events Conditions
12:53 AM 46.9 °F - 34.0 °F 61% 30.15 in 10.0 mi SSW 5.8 mph - N/A   Clear
1:53 AM 42.1 °F - 35.1 °F 76% 30.14 in 10.0 mi Calm Calm - N/A   Clear
2:53 AM 45.0 °F 42.6 °F 34.0 °F 65% 30.11 in 10.0 mi WNW 4.6 mph - N/A   Clear
3:53 AM 42.1 °F 36.6 °F 34.0 °F 73% 30.11 in 10.0 mi NW 9.2 mph - N/A   Clear
4:53 AM 41.0 °F 37.1 °F 33.1 °F 73% 30.10 in 10.0 mi West 5.8 mph - N/A   Clear
5:53 AM 41.0 °F 37.1 °F 33.1 °F 73% 30.10 in 10.0 mi WSW 5.8 mph - N/A   Clear
6:53 AM 42.1 °F 40.2 °F 35.1 °F 76% 30.10 in 10.0 mi SE 3.5 mph - N/A   Clear
7:53 AM 46.9 °F - 37.9 °F 71% 30.09 in 10.0 mi ESE 3.5 mph - N/A   Clear
8:53 AM 53.6 °F - 39.2 °F 58% 30.16 in 10.0 mi ESE 6.9 mph - N/A   Clear
9:53 AM 59.0 °F - 36.0 °F 42% 30.04 in 10.0 mi Calm Calm - N/A   Clear
10:53 AM 63.0 °F - 37.0 °F 38% 30.00 in 10.0 mi Variable 5.8 mph - N/A   Clear
11:53 AM 66.9 °F - 37.0 °F 33% 29.96 in 10.0 mi Variable 3.5 mph - N/A   Clear
12:53 PM 70.0 °F - 37.9 °F 31% 29.90 in 10.0 mi Variable 5.8 mph - N/A   Clear
1:53 PM 75.0 °F - 34.0 °F 22% 29.86 in 10.0 mi NNW 6.9 mph - N/A   Clear
2:53 PM 77.0 °F - 33.1 °F 20% 29.82 in 10.0 mi Variable 6.9 mph - N/A   Clear
3:53 PM 79.0 °F - 27.0 °F 15% 29.81 in 10.0 mi WNW 13.8 mph 23.0 mph N/A   Clear
4:53 PM 78.1 °F - 26.1 °F 15% 29.79 in 10.0 mi NW 12.7 mph 25.3 mph N/A   Clear
5:53 PM 77.0 °F - 26.1 °F 15% 29.78 in 10.0 mi Calm Calm - N/A   Clear
6:53 PM 77.0 °F - 32.0 °F 19% 29.77 in 10.0 mi NNE 6.9 mph - N/A   Clear
7:53 PM 73.9 °F - 33.1 °F 22% 29.76 in 10.0 mi ENE 3.5 mph - N/A   Clear
8:53 PM 64.0 °F - 30.9 °F 29% 29.78 in 10.0 mi WSW 9.2 mph - N/A   Clear
9:53 PM 62.1 °F - 30.9 °F 31% 29.79 in 10.0 mi SW 11.5 mph - N/A   Clear
10:50 PM 64.4 °F - 30.2 °F 28% 29.96 in 10.0 mi SW 15.0 mph - N/A   Partly Cloudy
10:53 PM 64.0 °F - 30.0 °F 28% 29.78 in 10.0 mi SW 15.0 mph - N/A   Partly Cloudy
11:53 PM 63.0 °F - 30.0 °F 29% 29.77 in 10.0 mi SW 16.1 mph - N/A   Clear